Location: Paddlesworth
(51.1000°N, 1.1333°E)
Time: 08:29:22
(UTC+00:00)

CZ-4C R/B - Pass Details

Date: 11 May 2021
Orbit: 609 x 1393 km, 63.4° (Epoch: 20 June)

Event Time Altitude Azimuth Distance (km) Brightness Sun altitude
Rises 22:14:57 0° 311° (NW) 3,886 6.9 -17.6°
Reaches altitude 10° 22:17:50 10° 301° (WNW) 3,042 5.9 -17.8°
Maximum altitude 22:23:57 29° 245° (WSW) 2,137 4.2 -18.1°
Enters shadow 22:28:58 16° 199° (SSW) 2,916 4.5 -18.4°
